Terminal Aerodrome Forecast
Issued by NWS

Home | Current Version | Previous Version | Graphics & Text | Print | Product List | Glossary Off
Versions: 1 2 3 4 5 6 7 8 9 10 11 12 13 14 15

000
FTUS43 KDDC 250930 AAB
TAFGCK
TAF AMD
KGCK 250930Z 2510/2606 03013KT P6SM OVC011
      TEMPO 2512/2514 3SM BR OVC005
     FM251500 02008KT P6SM OVC025
     FM251700 07009KT P6SM BKN035=

USA.gov is the U.S. government's official web portal to all federal, state and local government web resources and services.